ASA6 KLAX-KDCA

Flight info

Callsign ASA6
Flight time N/A
Altitude 35000
Route DOTSS2 CLEEE PKE J96 GUP KA36Y MMB END TUL J46 SOPIE HITMN Q34 SITTR TRUPS5
Aircraft B38M/M-SDE1FGHILORVWXY/HB1

Departure

Time 2026-04-20 23:50
Airport Los Angeles International Airport (KLAX)

Arrival

Time N/A
Airport Ronald Reagan Washington National Airport (KDCA)
Time Latitude Longitude Altitude Speed Heading
2026-04-20 23:24 33.94143 -118.40147 128 ft 0 kts 275°
2026-04-20 23:37 33.94142 -118.40135 128 ft 3 kts 273°
2026-04-20 23:37 33.94143 -118.40107 126 ft 4 kts 249°
2026-04-20 23:37 33.94157 -118.40088 124 ft 4 kts 188°
2026-04-20 23:37 33.94167 -118.40088 128 ft 2 kts 174°
2026-04-20 23:41 33.94166 -118.40088 128 ft 1 kts 174°
2026-04-20 23:41 33.94152 -118.40086 124 ft 4 kts 174°
2026-04-20 23:41 33.94106 -118.40080 126 ft 9 kts 173°
2026-04-20 23:42 33.94047 -118.40070 126 ft 9 kts 172°
2026-04-20 23:42 33.93982 -118.40059 126 ft 10 kts 172°
2026-04-20 23:42 33.93921 -118.40051 127 ft 8 kts 172°
2026-04-20 23:42 33.93883 -118.40007 126 ft 8 kts 110°
2026-04-20 23:43 33.93885 -118.39932 124 ft 10 kts 81°
2026-04-20 23:43 33.93894 -118.39845 128 ft 11 kts 83°
2026-04-20 23:43 33.93905 -118.39747 128 ft 13 kts 82°
2026-04-20 23:43 33.93915 -118.39638 128 ft 14 kts 83°
2026-04-20 23:44 33.93927 -118.39519 124 ft 15 kts 83°
2026-04-20 23:44 33.93941 -118.39390 126 ft 16 kts 83°
2026-04-20 23:44 33.93955 -118.39252 126 ft 17 kts 83°
2026-04-20 23:44 33.93969 -118.39106 126 ft 18 kts 82°
2026-04-20 23:45 33.93986 -118.38950 127 ft 19 kts 83°
2026-04-20 23:45 33.94002 -118.38787 128 ft 20 kts 83°
2026-04-20 23:45 33.94019 -118.38623 126 ft 16 kts 83°
2026-04-20 23:45 33.94033 -118.38490 128 ft 17 kts 84°
2026-04-20 23:46 33.94047 -118.38348 128 ft 18 kts 82°
2026-04-20 23:46 33.94062 -118.38197 128 ft 19 kts 83°
2026-04-20 23:46 33.94075 -118.38081 128 ft 6 kts 83°
2026-04-20 23:46 33.94079 -118.38045 128 ft 2 kts 83°
2026-04-20 23:47 33.94080 -118.38026 128 ft 0 kts 92°
2026-04-20 23:47 33.94079 -118.38021 128 ft 1 kts 99°
2026-04-20 23:47 33.94069 -118.38008 124 ft 4 kts 146°
2026-04-20 23:48 33.94028 -118.37996 128 ft 7 kts 174°
2026-04-20 23:48 33.93988 -118.38001 124 ft 2 kts 225°
2026-04-20 23:48 33.93986 -118.38014 127 ft 1 kts 264°
2026-04-20 23:49 33.93986 -118.38017 127 ft 3 kts 263°
2026-04-20 23:49 33.93969 -118.38189 125 ft 51 kts 263°
2026-04-20 23:49 33.93897 -118.38878 127 ft 113 kts 263°
2026-04-20 23:49 33.93777 -118.40021 202 ft 154 kts 262°
2026-04-20 23:50 33.93632 -118.41320 793 ft 159 kts 261°
2026-04-20 23:50 33.93483 -118.42642 1556 ft 158 kts 262°
2026-04-20 23:50 33.93353 -118.43992 2202 ft 169 kts 261°
2026-04-20 23:50 33.93144 -118.45447 2639 ft 185 kts 246°
2026-04-20 23:51 33.92422 -118.46799 3080 ft 200 kts 233°
2026-04-20 23:51 33.91562 -118.48181 3626 ft 214 kts 232°
2026-04-20 23:51 33.90609 -118.49635 4089 ft 232 kts 230°
2026-04-20 23:51 33.89555 -118.51175 4663 ft 246 kts 229°
2026-04-20 23:52 33.88431 -118.52806 5209 ft 260 kts 229°
2026-04-20 23:52 33.87228 -118.54486 5867 ft 268 kts 220°
2026-04-20 23:52 33.85657 -118.55554 6865 ft 259 kts 194°
2026-04-20 23:52 33.83857 -118.55723 7593 ft 265 kts 172°
2026-04-20 23:53 33.82030 -118.55297 8346 ft 270 kts 170°
2026-04-20 23:53 33.80190 -118.54844 9195 ft 270 kts 169°
2026-04-20 23:53 33.78347 -118.54374 10040 ft 272 kts 169°
2026-04-20 23:53 33.76465 -118.53884 10555 ft 283 kts 169°
2026-04-20 23:54 33.74497 -118.53363 11011 ft 296 kts 169°
2026-04-20 23:54 33.72444 -118.52788 11473 ft 310 kts 164°
2026-04-20 23:54 33.70503 -118.51540 11915 ft 327 kts 143°
2026-04-20 23:54 33.69035 -118.49395 12399 ft 344 kts 120°
2026-04-20 23:55 33.68201 -118.46644 12921 ft 357 kts 110°
2026-04-20 23:55 33.67436 -118.43779 13447 ft 363 kts 115°
2026-04-20 23:55 33.66523 -118.40925 13959 ft 371 kts 114°
2026-04-20 23:55 33.65609 -118.38011 14573 ft 374 kts 114°
2026-04-20 23:56 33.64735 -118.35031 15010 ft 385 kts 107°
2026-04-20 23:56 33.64500 -118.31816 15623 ft 392 kts 93°
2026-04-20 23:56 33.64485 -118.28519 16108 ft 399 kts 94°
2026-04-20 23:56 33.64473 -118.25183 16672 ft 402 kts 94°
2026-04-20 23:57 33.64469 -118.21809 17203 ft 406 kts 94°
2026-04-20 23:57 33.64468 -118.18406 17734 ft 410 kts 94°
2026-04-20 23:57 33.64467 -118.14971 18260 ft 413 kts 94°
2026-04-20 23:57 33.64466 -118.11509 18722 ft 417 kts 94°
2026-04-20 23:58 33.64464 -118.08015 19202 ft 419 kts 94°
2026-04-20 23:58 33.64461 -118.04513 19688 ft 421 kts 94°
2026-04-20 23:58 33.64457 -118.01038 20185 ft 423 kts 94°
2026-04-20 23:58 33.64452 -117.97492 20659 ft 426 kts 94°
2026-04-20 23:59 33.64446 -117.93927 21130 ft 428 kts 94°
2026-04-20 23:59 33.64439 -117.90346 21611 ft 430 kts 94°
2026-04-20 23:59 33.64430 -117.86767 22060 ft 433 kts 94°
2026-04-20 23:59 33.64421 -117.83148 22513 ft 435 kts 94°
2026-04-21 00:00 33.64490 -117.79530 22940 ft 441 kts 86°
2026-04-21 00:00 33.65138 -117.75906 23391 ft 446 kts 80°
2026-04-21 00:00 33.65827 -117.72262 23766 ft 449 kts 80°
2026-04-21 00:00 33.66525 -117.68594 24138 ft 451 kts 80°
2026-04-21 00:01 33.67231 -117.64909 24494 ft 454 kts 80°
2026-04-21 00:01 33.67935 -117.61240 24863 ft 456 kts 80°
2026-04-21 00:01 33.68635 -117.57590 25203 ft 459 kts 80°
2026-04-21 00:01 33.69352 -117.53840 25568 ft 461 kts 80°
2026-04-21 00:02 33.70070 -117.50082 25920 ft 464 kts 80°